Theta_e
321 321 320 319 318 316 315 314 313 313 313 312 313 314 316 317 317 317 317 316 315 315 315 314 314 313 313 314 315 316 317 317 317 317 317 317 318 318 318 319 320 322
322 321 320 319 318 316 316 314 314 314 313 312 312 313 315 317 317 316 316 316 315 314 314 314 313 313 312 313 314 314 315 315 315 314 315 315 315 316 316 317 319 320
323 322 321 320 319 317 316 315 314 314 313 312 312 313 315 316 317 316 316 315 315 314 314 313 312 312 312 313 313 313 313 312 313 312 313 313 313 313 314 314 316 317
323 323 321 320 319 318 317 316 315 314 313 312 312 312 314 315 316 316 316 315 315 314 314 313 312 311 312 312 312 311 311 311 311 311 311 311 311 312 312 312 313 314
324 323 322 321 319 318 317 316 316 315 314 313 312 312 314 315 316 316 315 315 315 314 314 313 311 312 312 312 311 311 312 311 311 311 311 311 310 311 311 311 311 312
323 323 323 321 320 318 317 317 316 315 314 313 312 312 313 315 316 316 315 315 315 314 314 313 311 312 312 311 311 311 312 312 312 312 311 310 310 310 310 311 312 311
323 323 323 322 320 318 318 318 317 315 314 313 311 311 313 315 315 316 315 315 314 314 314 313 312 312 312 312 312 311 312 313 313 313 312 310 309 309 310 312 313 312
323 323 323 322 320 319 318 318 317 315 314 313 311 311 313 314 315 315 315 315 314 314 314 313 313 313 313 313 313 312 312 313 313 313 312 311 310 309 309 312 313 313
323 323 323 322 320 319 318 318 317 316 314 312 311 311 312 313 314 315 315 315 315 314 314 314 314 314 313 313 313 313 313 313 314 314 313 312 310 309 309 311 313 314
322 323 323 323 321 319 319 318 317 316 315 312 311 311 311 312 314 315 315 315 315 314 314 314 313 314 314 314 314 314 313 314 314 314 313 312 311 309 309 310 312 314
322 323 323 323 322 320 319 319 318 316 315 313 311 311 311 312 313 315 315 315 314 314 314 314 313 313 314 314 314 314 314 314 314 314 314 313 311 309 309 310 312 314
322 322 323 323 322 321 320 319 318 316 315 313 311 310 311 311 313 314 315 315 314 314 314 314 313 313 313 313 314 314 314 314 314 314 314 313 311 310 309 311 313 315
321 321 323 323 322 321 320 319 318 317 315 314 311 311 311 311 312 314 314 315 314 314 314 314 313 313 313 313 313 314 314 314 314 314 313 313 311 309 310 312 315 316
321 322 323 322 321 321 320 319 318 317 316 314 312 311 311 312 313 314 314 314 314 314 314 313 312 312 312 312 312 313 314 313 313 314 313 312 311 310 310 313 316 316
322 322 322 322 321 320 320 319 318 317 316 314 312 311 311 312 313 314 314 314 313 313 313 313 312 312 312 311 312 313 313 312 312 313 313 312 311 310 310 314 316 317
321 322 321 321 321 320 320 319 317 317 316 314 312 311 311 312 313 313 313 312 311 311 311 311 310 310 310 311 312 312 311 311 312 313 313 312 311 310 310 314 317 317
320 321 320 320 320 319 319 318 317 316 315 313 312 311 311 312 313 313 312 311 310 310 309 309 308 308 309 310 311 310 311 312 313 313 312 312 311 310 309 313 316 317
319 320 319 319 319 318 318 317 316 315 314 313 312 311 311 312 313 313 311 309 309 309 308 308 308 308 309 309 309 310 311 313 313 313 313 312 312 311 309 312 315 316
319 319 319 318 318 317 316 315 314 313 313 312 311 311 311 312 313 312 310 308 308 308 308 307 308 308 309 309 310 310 311 312 312 313 313 312 312 311 309 311 314 315
318 318 318 317 317 316 314 313 312 312 312 311 311 310 311 312 312 311 309 308 308 308 308 308 308 308 309 309 310 310 310 311 311 312 313 312 312 312 310 310 312 314
315 315 315 314 315 314 313 313 312 312 311 311 311 311 311 311 311 310 309 308 308 308 308 308 307 308 308 309 308 309 309 309 311 312 313 313 312 312 310 309 311 313
314 313 313 313 313 313 313 313 312 312 311 311 311 311 311 311 310 310 309 308 308 308 308 307 307 307 308 307 307 307 308 308 310 312 312 312 312 312 310 309 311 312
314 314 313 312 312 312 313 312 312 312 311 311 311 311 310 310 310 309 309 309 309 309 308 308 307 307 307 306 305 305 306 307 309 312 312 312 312 311 309 310 311 312
315 315 314 313 312 312 312 312 312 312 311 311 311 310 310 310 310 309 309 309 309 308 308 308 308 307 306 306 305 304 304 305 308 311 312 312 311 310 309 310 311 311
316 315 315 314 313 312 312 312 312 311 311 311 311 310 310 309 309 309 309 309 308 308 307 307 307 306 306 305 305 304 304 304 306 310 312 311 310 309 309 310 310 311
317 316 316 315 314 314 313 312 312 311 311 311 310 310 310 309 309 309 308 308 307 307 307 306 306 306 306 306 305 304 304 304 305 310 312 311 309 308 308 308 309 310
Wind_Speed
17 15 12 11 9 8 6 5 6 7 8 8 8 9 9 8 7 6 4 3 5 8 10 12 13 14 13 13 12 10 9 9 9 9 10 10 11 12 12 13 12 10
19 17 15 13 11 9 7 6 6 7 7 8 8 8 8 8 8 7 5 5 7 9 11 11 12 13 14 13 11 10 10 10 11 11 11 12 12 12 13 14 13 12
20 19 18 15 13 11 9 7 7 7 7 8 8 8 8 8 9 8 6 6 8 10 10 10 11 12 12 11 10 10 11 11 12 12 12 13 13 13 14 14 14 13
20 20 19 17 14 12 10 8 8 8 7 8 8 8 8 9 10 8 7 7 9 10 10 10 10 10 9 9 10 11 11 11 11 12 13 13 14 14 15 15 15 14
19 18 19 19 16 13 11 10 10 9 8 8 8 8 9 10 10 8 7 8 9 10 10 9 8 8 7 8 10 11 11 11 11 12 13 13 14 15 15 16 15 15
18 17 17 19 17 14 14 12 11 10 8 8 8 8 9 10 10 9 8 8 9 10 10 9 7 7 7 7 9 11 11 11 11 12 12 14 16 16 16 16 16 15
17 16 15 17 18 16 15 13 12 11 9 8 8 8 8 9 10 10 9 9 9 9 10 9 9 8 7 7 9 11 12 11 11 12 13 15 18 18 17 17 17 16
16 16 14 15 18 19 17 14 13 11 9 8 8 8 8 9 10 10 10 10 9 9 9 9 9 9 9 9 9 11 12 12 12 13 15 16 19 20 19 18 18 18
15 14 13 14 18 20 18 16 14 12 10 9 8 6 7 8 10 11 11 11 11 10 10 10 10 10 10 11 11 12 12 12 13 14 15 17 20 21 21 20 20 20
15 14 13 14 18 20 19 16 15 13 11 9 8 6 6 8 10 11 11 12 13 12 11 11 11 11 11 11 12 13 13 12 13 14 15 17 20 22 23 21 21 21
14 14 13 14 17 19 19 17 15 14 12 10 9 7 7 8 10 12 12 13 14 13 13 12 12 11 11 11 11 12 12 12 12 13 15 17 20 22 23 22 21 21
13 13 13 13 15 17 17 17 16 15 13 12 11 9 8 9 10 12 13 14 14 14 14 15 14 12 11 12 11 11 11 12 12 13 15 17 19 22 22 21 19 18
11 10 11 12 14 15 16 17 17 16 15 14 12 11 10 10 11 12 13 14 15 15 16 16 15 14 14 14 13 12 11 12 12 13 15 16 18 21 21 19 17 15
7 7 8 10 12 14 16 17 17 16 16 15 14 13 12 12 12 12 13 14 15 17 17 16 15 16 16 16 15 14 13 13 13 14 15 17 18 21 20 18 15 13
4 5 7 9 12 14 15 16 17 17 17 16 15 15 14 13 13 13 14 15 16 17 18 17 17 17 17 17 16 14 14 14 15 15 16 17 19 21 20 17 15 13
3 4 7 9 11 12 14 15 16 16 16 17 17 16 16 15 14 14 14 15 16 17 16 16 16 17 17 17 15 14 15 16 16 16 16 18 19 21 21 17 14 14
3 5 7 9 11 12 14 15 15 15 16 17 18 17 17 16 15 14 14 14 15 14 14 15 15 16 16 15 13 13 15 16 16 16 16 17 19 21 22 18 15 14
5 7 8 10 11 12 14 14 14 14 15 17 18 18 17 16 16 15 13 13 13 12 13 14 15 14 13 13 13 15 15 15 16 17 17 17 19 20 21 19 16 14
7 8 10 11 12 12 13 13 13 14 15 16 17 17 17 17 17 15 13 12 12 11 12 12 12 13 12 12 14 16 15 15 17 18 17 18 19 20 20 19 17 16
9 10 11 12 12 12 12 12 13 14 15 16 16 16 16 17 17 16 14 13 12 12 13 13 14 14 15 15 15 15 15 17 19 19 19 19 20 20 20 19 17 16
10 11 11 11 11 11 12 13 14 14 14 15 15 15 16 16 16 16 15 14 13 13 14 14 15 15 15 15 15 15 17 19 19 19 20 20 20 21 21 19 16 16
11 11 12 11 11 12 13 14 15 15 15 14 15 15 16 16 16 17 16 15 15 15 15 15 15 14 15 15 15 15 18 19 19 19 20 21 21 21 22 19 16 15
13 13 13 13 12 13 14 15 16 16 15 14 15 16 17 17 18 17 17 17 16 17 17 17 15 15 16 17 16 17 19 20 19 19 19 21 21 21 21 18 15 15
15 15 15 15 15 15 16 16 16 16 15 15 16 18 18 17 17 17 17 17 17 17 16 16 16 16 17 18 17 17 19 20 19 18 19 20 20 20 19 16 14 14
18 18 18 18 18 18 17 17 16 16 15 16 17 18 18 17 16 17 17 17 16 15 15 15 16 17 17 18 17 17 19 20 19 18 18 19 19 19 17 15 14 14
19 19 20 20 20 20 19 17 16 16 15 16 17 18 17 16 15 16 17 16 15 15 15 15 16 17 17 16 16 17 19 19 17 16 17 17 17 16 16 15 14 14
Wind_Direction
252 251 248 251 255 263 281 295 308 320 327 330 330 336 339 334 339 344 331 332 344 344 345 347 347 346 346 346 344 344 349 353 353 351 348 348 346 344 343 342 347 354
255 252 247 245 246 253 268 281 295 309 318 324 321 323 328 320 318 322 313 320 342 347 347 346 345 343 342 342 342 344 348 353 356 355 351 348 344 342 339 336 335 340
257 253 246 243 244 250 261 273 285 297 308 317 318 314 314 310 309 307 299 312 335 341 342 343 346 345 341 342 346 350 352 353 354 355 352 347 344 338 335 333 328 327
261 256 248 244 245 249 255 265 278 288 297 309 315 311 300 300 306 303 295 309 326 335 338 340 346 349 346 346 351 354 356 355 354 355 351 348 347 340 333 330 326 322
268 263 254 247 243 244 249 260 274 283 290 302 312 309 295 294 302 298 292 304 321 333 337 334 338 347 348 349 351 349 352 354 352 352 353 354 354 348 341 334 325 318
270 269 260 248 241 241 246 258 270 276 284 298 307 307 296 291 295 293 291 302 320 332 333 325 323 332 339 346 348 346 346 347 346 345 346 349 351 348 344 338 330 319
269 269 263 248 238 238 244 254 265 269 277 293 302 305 296 289 290 289 287 294 309 322 326 318 310 316 323 327 339 347 343 338 338 338 337 341 344 342 340 336 331 323
268 266 262 246 235 235 239 248 258 263 270 284 298 304 295 288 287 285 282 284 292 305 314 310 304 308 312 310 319 334 335 331 333 334 332 334 338 339 337 332 326 323
268 265 258 244 233 232 237 245 253 258 262 275 292 298 292 290 286 281 279 277 279 290 301 304 303 305 306 304 305 311 318 323 328 329 329 330 333 336 335 329 322 319
269 265 256 243 234 232 236 244 250 252 255 266 277 281 289 294 285 278 278 275 276 284 293 299 304 306 305 304 305 306 309 314 320 324 326 327 330 334 334 329 322 316
268 264 255 244 236 233 237 244 249 250 252 260 265 267 281 291 284 278 278 277 279 284 290 295 300 305 305 303 307 311 309 307 312 318 322 324 329 334 334 329 324 318
270 265 256 246 237 236 241 246 250 251 252 256 259 261 272 282 281 280 280 280 283 287 291 294 296 300 301 300 306 312 310 306 307 313 319 322 328 336 335 329 327 324
274 271 261 250 243 242 246 249 252 253 254 257 258 258 265 274 277 279 281 282 285 289 292 293 293 296 297 298 301 305 308 308 307 310 316 321 329 336 335 330 332 331
286 281 268 256 249 248 250 252 253 255 256 257 256 256 264 271 275 278 282 284 288 293 294 293 293 294 297 300 299 298 304 311 311 312 317 321 330 337 336 333 336 334
310 287 268 256 251 252 254 255 256 257 257 256 254 257 264 269 274 278 282 287 294 297 296 295 297 298 300 302 300 298 304 311 313 315 318 321 328 337 338 335 337 336
308 277 264 257 256 260 261 261 261 259 257 255 255 259 263 266 271 277 283 290 297 301 301 303 306 306 305 306 304 305 307 310 311 312 317 321 327 336 338 336 339 337
281 272 269 266 266 268 268 268 267 262 258 257 258 260 261 262 267 273 282 291 294 299 305 310 313 310 309 309 307 304 306 309 310 310 315 321 326 334 338 335 335 336
269 272 274 273 272 271 271 272 269 261 258 258 261 262 261 260 263 269 278 285 286 293 306 315 317 313 311 310 302 299 303 308 308 307 314 320 323 331 336 332 329 330
269 271 274 274 273 274 272 267 260 257 258 261 265 267 262 259 261 265 272 277 279 288 302 311 314 311 310 309 303 302 304 304 303 305 311 315 317 326 333 330 324 321
266 268 271 273 273 271 265 258 255 257 262 265 268 267 260 257 259 262 267 273 277 284 293 300 302 305 311 313 310 308 305 302 302 304 308 311 313 320 328 326 319 313
261 264 268 271 271 266 260 256 256 260 265 267 266 261 257 257 259 262 265 270 277 284 290 296 301 306 311 314 315 313 306 305 307 305 304 307 310 315 322 322 314 308
261 264 267 271 271 265 262 260 260 263 267 267 263 258 256 256 258 262 265 270 276 283 286 290 297 303 304 307 311 308 302 303 306 303 302 305 308 314 320 317 309 307
264 265 267 268 266 263 263 264 265 266 268 265 260 257 255 256 260 264 267 271 277 283 286 289 295 299 300 303 305 301 298 303 305 302 301 303 306 315 319 313 308 310
265 264 265 264 262 262 264 267 267 267 266 263 260 259 258 260 265 268 269 273 279 284 288 291 294 296 299 302 303 299 298 302 303 299 298 301 307 316 320 313 309 313
269 265 263 262 262 262 264 267 268 267 266 262 260 259 261 264 267 268 270 274 278 282 287 291 294 298 302 305 305 299 296 298 299 295 294 300 308 316 319 315 315 322
276 269 266 264 263 264 264 266 267 267 264 261 259 259 260 262 265 266 270 274 277 282 288 292 296 303 307 307 302 297 295 297 296 291 291 299 308 313 316 317 319 325